Location: Waco, TX
(31.5480°N, 97.1670°W)
Time: 18:08:02
(UTC-06:00)

ISS - Pass Details

Date: 19 January 2019
Orbit: 404 x 410 km, 51.6° (Epoch: 24 January)

Event Time Altitude Azimuth Distance (km) Brightness Sun altitude
Rises 21:07:51 0° 274° (W) 2,326 - -41.5°
Maximum altitude 21:12:14 11° 329° (NNW) 1,433 - -42.5°
Drops below altitude 10° 21:13:02 10° 343° (NNW) 1,472 - -42.6°
Sets 21:16:39 0° 25° (NNE) 2,338 - -43.4°
